Wetbulb
74.44 73.76 74.84 75.26 75.76 75.69 75.21 75.08 74.03 73.37 73.37 73.32 72.78 72.21 72.06 72.37 72.98 71.85 71.30 71.78 70.76 70.76 70.73 70.23 71.16 71.96 71.86 70.56 71.67 71.10 70.50 68.53 66.22 67.09 68.08 68.10 67.15 70.69 69.15 67.15 70.15 71.86 71.70
71.76 72.54 74.84 74.48 73.62 73.14 73.63 74.12 73.98 73.73 71.11 73.10 70.26 73.21 72.59 72.66 72.01 71.06 70.38 70.91 70.56 70.52 70.37 70.24 70.87 72.40 70.89 71.27 70.97 70.76 70.24 69.86 68.39 64.92 65.56 67.04 67.00 67.65 68.66 69.36 72.04 74.07 74.11
72.19 72.54 72.69 72.99 73.00 72.79 73.08 73.30 73.39 71.69 70.85 71.93 71.80 72.50 72.43 71.83 72.78 72.29 71.41 71.04 71.03 70.93 70.66 70.52 70.26 71.56 70.31 70.95 71.12 70.12 70.61 71.61 68.35 66.26 66.08 67.63 66.11 66.69 66.68 68.18 70.84 73.58 74.28
70.86 72.51 72.11 71.74 71.31 71.85 72.57 72.73 73.02 72.54 70.36 69.92 71.00 72.55 71.67 71.59 72.62 71.92 71.22 69.96 70.66 71.55 71.36 71.10 70.91 70.97 70.68 69.82 71.18 71.01 70.57 69.34 68.62 66.30 65.70 66.98 64.69 65.66 67.69 70.62 70.90 72.39 72.41
66.61 68.69 69.69 70.16 70.38 71.56 72.21 71.91 72.16 71.59 73.46 71.41 68.94 71.04 69.01 68.34 68.96 65.30 65.57 64.81 65.93 70.21 71.28 71.36 72.12 72.21 72.20 71.99 71.65 71.75 70.37 69.39 69.14 67.52 65.75 67.67 67.67 69.04 68.84 71.52 69.09 68.70 69.22
64.85 65.48 66.59 67.91 69.10 69.42 69.66 69.93 71.45 70.36 68.38 67.09 64.82 67.62 69.29 70.64 65.73 64.91 66.15 64.81 67.99 69.72 70.17 70.57 71.28 71.75 71.37 70.64 70.39 72.21 72.16 69.74 69.35 68.19 68.75 66.64 66.95 68.61 69.95 69.31 68.57 67.43 66.42
64.73 64.97 65.74 66.46 66.83 66.99 67.85 68.50 69.26 69.84 68.92 66.93 66.37 66.80 67.02 68.91 64.12 64.92 66.06 66.89 66.62 67.54 68.90 69.91 70.64 72.62 70.42 71.59 69.44 68.71 69.09 68.55 69.85 69.85 68.20 68.14 67.96 69.71 69.77 68.57 68.29 67.36 67.07
64.44 64.42 65.11 66.13 65.89 66.10 67.22 66.25 66.45 68.23 68.82 71.16 70.49 69.99 69.43 68.64 63.27 63.24 66.15 62.78 63.34 63.93 66.70 70.00 70.16 70.59 70.35 70.29 70.69 69.39 69.03 70.01 69.20 69.79 70.64 70.63 71.21 71.68 72.06 70.13 69.82 69.65 70.38
63.72 64.68 66.00 65.90 65.36 65.96 66.09 66.10 65.87 66.17 66.57 67.74 69.12 69.07 70.89 69.61 62.47 61.53 65.02 63.02 62.76 63.34 66.08 69.93 70.36 70.37 68.54 66.35 68.65 67.96 69.36 70.63 68.95 67.20 67.90 68.46 68.87 70.04 71.87 71.34 69.81 68.62 66.86
62.82 63.33 65.35 65.77 65.60 65.07 64.94 64.86 66.09 66.53 66.40 67.00 66.38 66.93 66.26 68.03 65.27 61.12 64.74 65.38 61.69 62.76 66.38 68.13 66.93 68.74 65.95 64.38 68.12 68.35 68.83 70.28 71.57 70.68 68.52 67.34 67.56 69.00 68.80 71.25 70.30 67.97 66.70
64.24 64.31 64.47 64.51 64.68 65.20 65.24 65.35 64.95 64.73 64.85 64.62 65.19 65.22 64.29 65.51 68.16 60.60 60.38 68.24 66.29 66.51 63.38 63.89 65.59 63.06 62.31 61.40 62.65 68.83 68.78 70.14 70.05 69.88 69.97 69.84 70.22 70.17 70.30 69.82 71.40 70.44 66.57
63.26 64.97 65.48 65.83 66.05 64.87 63.07 63.10 63.40 63.51 63.44 63.60 63.26 63.97 65.55 66.40 63.61 59.99 59.33 62.97 65.53 65.95 65.68 66.43 65.20 60.21 58.86 59.46 61.74 64.00 61.95 65.11 69.54 69.41 69.43 68.73 68.60 70.13 71.47 72.01 71.36 71.95 71.24
62.95 62.32 63.07 63.71 64.29 64.33 62.56 62.23 62.13 62.50 62.62 62.12 62.24 62.07 63.25 64.93 66.10 60.94 59.12 60.29 62.01 67.22 68.92 67.04 63.75 60.81 56.13 59.27 59.47 61.88 61.60 66.62 68.37 68.44 68.29 68.94 69.32 70.21 71.21 71.36 72.48 71.85 71.25
61.06 61.06 61.44 61.89 61.39 62.49 63.20 62.77 62.00 61.40 61.42 61.65 61.59 61.43 61.96 62.05 62.41 62.14 61.43 60.85 60.72 64.49 67.35 68.01 64.53 63.81 63.76 63.60 63.78 63.03 64.92 66.93 67.29 67.49 68.19 69.02 69.03 68.01 68.91 70.52 70.44 69.70 68.89
61.53 61.76 61.21 61.11 60.86 61.63 61.26 61.61 61.53 62.46 61.47 61.38 61.13 61.94 61.76 61.25 62.23 59.53 60.01 63.78 64.51 63.42 64.82 67.92 66.97 66.86 67.11 66.05 66.70 67.47 65.79 66.95 67.11 67.58 67.17 68.10 68.30 67.76 67.90 69.23 68.76 68.03 67.70
59.70 60.95 61.55 61.76 61.64 61.61 61.35 60.62 55.79 54.28 53.08 51.54 51.20 56.11 61.20 55.70 53.67 48.84 50.99 52.64 53.55 52.28 62.21 66.36 67.36 67.99 67.49 67.83 67.67 67.83 67.47 66.55 67.54 67.76 68.42 68.82 68.24 67.56 67.74 67.79 67.47 68.26 67.85
59.89 59.99 60.35 59.03 60.53 60.42 60.49 59.84 58.75 58.56 51.69 48.67 48.05 48.29 47.44 51.56 48.21 46.44 47.02 49.20 50.29 53.37 63.59 65.25 66.34 66.11 67.65 68.78 68.73 68.30 68.28 69.16 68.42 68.55 68.73 68.64 68.55 68.60 67.09 67.67 67.83 67.81 66.99
60.80 57.69 59.84 59.56 59.52 60.09 61.06 60.93 60.76 58.98 58.32 59.20 54.11 49.15 48.66 45.42 44.64 44.61 47.37 49.56 57.30 58.38 63.09 64.24 65.23 66.51 66.48 67.18 67.74 67.58 68.03 68.08 67.81 68.89 68.82 68.93 68.89 68.66 67.92 67.16 67.83 67.54 67.32
60.40 60.60 60.44 60.36 60.68 59.95 60.45 60.34 60.86 59.42 59.34 58.89 58.62 55.78 53.16 45.23 43.84 42.97 44.99 56.05 58.17 59.56 60.58 62.17 64.15 65.66 65.99 65.53 65.73 67.79 67.69 67.65 67.79 67.94 66.64 66.89 65.76 64.70 65.45 67.32 67.67 62.11 63.70
54.98 56.75 59.31 59.50 58.56 58.93 60.39 60.12 59.49 59.40 59.04 59.34 58.54 58.68 57.43 51.65 53.39 52.48 51.51 55.49 58.29 59.96 60.96 62.58 64.26 65.08 65.52 65.33 64.75 65.00 66.41 65.22 67.38 68.17 66.61 66.03 65.99 63.86 62.89 63.98 66.95 67.43 66.39
51.39 52.60 56.72 59.59 59.04 58.83 59.53 59.87 60.10 59.48 58.48 58.94 59.47 59.75 53.78 57.74 58.52 59.10 59.62 58.10 59.00 60.52 62.16 63.22 63.91 65.01 65.73 65.88 65.75 65.95 65.86 65.76 66.73 67.90 68.46 68.01 67.88 67.74 67.29 66.73 67.97 67.85 66.52
52.22 52.12 54.04 57.77 60.15 59.37 59.31 59.77 59.69 59.13 59.05 58.65 59.10 58.95 51.17 54.74 58.93 59.23 61.56 63.13 63.01 63.01 64.32 64.34 64.24 64.93 66.21 66.77 66.93 66.67 66.03 65.70 66.56 68.39 68.36 68.50 68.37 67.92 67.43 67.61 67.36 67.49 66.38
52.87 52.03 54.25 56.67 59.16 57.98 58.65 58.73 58.36 59.81 59.12 59.20 58.11 59.11 61.07 59.55 58.71 58.36 58.68 61.04 63.30 64.02 64.74 64.63 64.93 64.92 65.75 66.20 67.46 67.41 66.57 65.81 65.60 66.71 67.67 67.80 67.63 67.47 67.16 67.05 66.59 65.44 65.47
53.21 53.76 55.39 56.68 56.45 56.97 58.25 59.13 59.89 55.34 58.20 59.40 59.85 61.19 59.77 59.69 60.45 60.92 59.19 59.29 60.43 62.53 64.76 65.14 65.50 65.00 65.53 65.90 66.35 66.82 66.90 67.67 67.01 67.04 68.28 68.78 67.58 63.31 67.18 66.35 65.49 65.45 65.25
49.25 49.55 49.54 49.37 49.91 50.87 51.97 52.64 54.95 55.79 59.10 60.62 61.20 61.24 60.40 60.82 60.85 60.77 60.01 61.31 62.78 62.97 63.84 64.46 66.26 65.43 64.86 64.38 65.56 66.32 62.07 53.96 62.11 59.99 67.04 66.47 67.14 66.67 66.85 66.19 65.40 65.27 65.08
49.15 48.76 48.23 48.07 47.33 47.84 47.87 48.54 49.22 49.39 50.85 52.99 54.83 57.25 57.29 56.71 55.55 57.57 57.85 57.09 57.57 60.11 63.11 63.66 62.84 64.69 65.31 66.60 66.70 60.08 45.39 41.95 53.18 42.13 62.44 65.62 65.77 64.84 64.94 65.58 64.92 65.01 64.28
MSLP
1008.31 1008.47 1008.70 1008.94 1008.93 1008.94 1008.96 1009.11 1009.53 1010.11 1010.16 1010.25 1010.70 1010.66 1010.53 1010.88 1011.03 1011.33 1011.68 1011.67 1012.00 1012.07 1012.27 1012.62 1012.77 1012.99 1013.06 1013.09 1012.88 1012.87 1013.00 1013.60 1013.95 1014.34 1014.46 1013.78 1013.56 1012.95 1012.57 1012.24 1013.14 1013.78 1013.37
1008.51 1008.50 1008.20 1008.48 1008.51 1008.68 1008.76 1008.79 1008.91 1009.32 1009.94 1010.63 1010.57 1010.39 1009.62 1010.20 1010.67 1010.99 1011.10 1011.24 1011.50 1011.50 1011.86 1012.28 1012.17 1012.39 1012.59 1012.54 1012.65 1012.68 1012.68 1012.85 1013.58 1014.25 1014.15 1014.14 1013.53 1013.58 1013.16 1013.52 1013.37 1012.85 1012.78
1008.59 1008.25 1008.30 1008.28 1008.39 1008.53 1008.51 1008.49 1008.55 1008.80 1009.20 1009.83 1010.09 1009.84 1009.53 1009.94 1010.33 1009.98 1010.01 1010.45 1010.85 1010.89 1011.17 1011.45 1011.48 1011.74 1011.91 1012.00 1012.07 1012.27 1012.33 1012.56 1013.16 1013.53 1013.62 1013.12 1013.01 1013.34 1013.28 1013.41 1012.97 1012.59 1012.12
1009.26 1009.00 1008.77 1008.59 1008.60 1008.56 1008.51 1008.37 1008.44 1008.52 1008.75 1009.12 1009.39 1009.35 1009.37 1009.76 1009.88 1010.19 1010.25 1010.26 1010.17 1010.13 1010.37 1010.59 1010.81 1010.93 1011.18 1011.44 1011.80 1011.80 1012.08 1012.45 1012.71 1013.10 1013.57 1013.37 1013.37 1012.94 1013.45 1012.87 1012.87 1012.41 1012.40
1009.59 1009.53 1009.35 1009.03 1009.04 1008.73 1008.67 1008.37 1008.39 1008.53 1008.62 1008.95 1009.28 1009.44 1009.57 1009.84 1010.10 1010.38 1010.39 1010.11 1009.77 1009.55 1009.66 1009.97 1010.17 1010.12 1010.23 1010.50 1011.11 1011.17 1011.54 1011.90 1012.11 1012.20 1012.71 1013.32 1013.15 1013.17 1013.03 1012.54 1012.69 1012.65 1012.33
1009.50 1009.70 1009.67 1009.41 1009.07 1008.80 1008.67 1008.47 1008.45 1008.71 1008.96 1009.01 1009.11 1009.31 1009.35 1009.52 1009.47 1009.73 1010.16 1010.04 1009.72 1009.48 1009.83 1009.84 1009.81 1009.59 1009.61 1009.72 1010.09 1010.42 1010.49 1010.81 1011.11 1011.50 1011.99 1012.39 1012.47 1012.19 1012.21 1012.20 1012.47 1012.79 1012.68
1009.51 1009.58 1009.53 1009.45 1009.24 1008.98 1008.75 1008.65 1008.71 1008.81 1008.79 1008.90 1008.99 1009.09 1009.19 1009.30 1009.21 1009.23 1009.26 1009.30 1008.89 1009.51 1010.03 1010.04 1009.94 1009.60 1009.54 1009.54 1009.71 1010.02 1010.06 1010.12 1010.05 1010.44 1010.86 1011.17 1011.43 1011.35 1011.50 1011.90 1012.08 1012.22 1012.06
1009.11 1009.14 1009.15 1009.07 1009.02 1008.87 1008.74 1008.63 1008.60 1008.67 1008.70 1008.60 1008.53 1008.53 1008.67 1008.71 1008.60 1008.78 1009.05 1008.20 1008.45 1008.66 1009.32 1009.49 1009.43 1008.78 1009.37 1009.45 1009.42 1009.85 1009.58 1009.70 1009.98 1010.14 1010.04 1009.95 1010.20 1010.41 1010.50 1010.85 1011.25 1011.48 1011.47
1008.59 1008.64 1008.57 1008.56 1008.55 1008.58 1008.58 1008.45 1008.43 1008.49 1008.37 1008.22 1008.05 1008.07 1008.18 1008.13 1007.98 1008.38 1008.49 1008.16 1006.79 1007.07 1008.11 1008.58 1008.99 1008.95 1008.91 1009.11 1009.09 1009.35 1009.19 1009.06 1008.97 1009.12 1009.08 1009.18 1009.42 1009.66 1009.92 1010.59 1010.97 1011.19 1011.35
1007.72 1007.62 1007.61 1007.63 1007.74 1007.86 1007.91 1007.96 1007.92 1007.99 1008.06 1007.84 1007.67 1007.48 1007.45 1007.40 1007.15 1007.63 1007.64 1007.81 1007.70 1007.48 1007.45 1006.86 1007.66 1007.38 1007.57 1008.13 1008.50 1008.59 1008.66 1008.39 1008.56 1008.74 1009.23 1009.42 1009.36 1009.65 1009.70 1009.92 1010.28 1010.83 1011.07
1007.22 1007.09 1007.03 1006.99 1006.98 1007.08 1007.22 1007.28 1007.35 1007.41 1007.51 1007.36 1007.09 1007.04 1006.98 1006.86 1006.80 1006.72 1006.98 1006.96 1007.12 1007.21 1006.83 1006.01 1005.61 1006.15 1006.52 1006.69 1007.00 1007.45 1007.58 1007.97 1008.07 1008.44 1008.78 1008.79 1008.82 1009.08 1009.28 1009.29 1009.38 1009.72 1010.21
1006.95 1006.94 1006.75 1006.56 1006.17 1006.18 1006.35 1006.49 1006.57 1006.70 1006.88 1006.89 1006.67 1006.53 1006.31 1006.03 1005.65 1005.81 1005.78 1005.68 1005.64 1005.91 1005.43 1005.19 1005.02 1005.63 1005.56 1005.84 1006.19 1006.37 1006.65 1007.22 1007.73 1008.00 1008.19 1008.13 1008.18 1008.39 1008.51 1008.58 1008.53 1008.80 1008.85
1006.63 1006.33 1006.13 1005.82 1005.65 1005.42 1005.45 1005.63 1005.82 1005.89 1006.08 1006.13 1005.89 1005.72 1005.60 1005.48 1004.98 1004.61 1005.06 1004.83 1005.01 1004.97 1004.30 1003.90 1004.35 1004.89 1005.16 1005.44 1005.82 1005.83 1006.17 1006.62 1006.93 1007.12 1007.09 1007.12 1007.29 1007.54 1007.74 1007.76 1007.85 1007.85 1008.14
1006.01 1005.73 1005.53 1005.29 1004.93 1004.81 1004.72 1004.81 1004.79 1004.93 1005.03 1005.20 1005.12 1004.84 1004.69 1004.43 1004.22 1004.14 1004.33 1004.60 1004.70 1004.33 1003.52 1003.63 1004.01 1004.06 1004.43 1004.60 1005.14 1005.51 1005.85 1005.93 1005.88 1006.06 1006.18 1006.27 1006.49 1006.84 1007.12 1007.16 1007.46 1007.68 1008.11
1005.57 1005.20 1004.89 1004.68 1004.27 1003.91 1003.76 1003.70 1003.65 1003.62 1003.78 1003.98 1004.16 1004.05 1003.99 1003.85 1003.72 1003.70 1003.75 1003.75 1003.90 1003.88 1003.94 1003.81 1003.86 1003.91 1004.17 1004.42 1004.70 1004.86 1004.76 1005.05 1005.26 1005.40 1005.64 1005.73 1005.90 1006.16 1006.22 1006.32 1006.70 1007.02 1007.33
1005.09 1004.59 1004.14 1003.82 1003.53 1003.32 1003.01 1002.74 1002.45 1002.58 1002.53 1002.68 1002.82 1003.20 1002.86 1002.94 1003.11 1003.43 1003.14 1003.09 1002.88 1002.95 1003.72 1003.65 1003.35 1003.28 1003.40 1003.34 1003.67 1003.96 1004.08 1004.11 1004.17 1004.78 1005.00 1005.23 1005.40 1005.59 1005.62 1005.76 1005.90 1006.22 1006.70
1004.31 1003.80 1003.43 1003.13 1002.87 1002.58 1002.35 1002.33 1002.10 1001.68 1001.54 1001.72 1001.87 1002.04 1002.34 1002.29 1002.22 1002.61 1003.00 1002.84 1002.63 1002.80 1002.84 1002.97 1002.79 1002.54 1002.40 1002.45 1002.68 1002.82 1002.80 1002.80 1003.17 1003.71 1004.10 1004.33 1004.44 1004.56 1004.70 1004.76 1004.92 1005.34 1005.77
1003.47 1002.89 1002.55 1002.26 1002.11 1001.79 1001.49 1001.38 1001.37 1001.27 1001.17 1001.05 1000.85 1001.24 1001.01 1001.20 1001.27 1002.23 1002.62 1002.73 1002.81 1002.69 1002.04 1001.53 1001.64 1001.62 1001.53 1001.47 1001.60 1001.79 1001.80 1001.97 1002.33 1002.71 1002.97 1003.09 1003.24 1003.43 1003.75 1003.94 1004.06 1004.23 1004.66
1003.03 1002.17 1001.69 1001.46 1001.16 1000.95 1000.93 1000.59 1000.58 1000.77 1000.67 1000.62 1000.47 1000.36 1000.13 1000.65 1000.95 1001.25 1001.73 1001.58 1001.40 1001.40 1001.25 1000.95 1000.60 1000.50 1000.60 1000.64 1000.64 1000.76 1000.96 1001.19 1001.48 1001.72 1001.80 1002.00 1002.25 1002.63 1002.95 1003.18 1003.35 1003.56 1003.88
1003.26 1002.41 1001.46 1000.88 1000.59 1000.36 1000.08 999.95 999.97 1000.07 1000.08 1000.00 999.89 999.66 999.71 1000.47 1000.79 1000.92 1000.92 1000.54 1000.41 1000.07 999.79 999.66 999.60 999.49 999.59 999.72 999.76 999.79 999.95 1000.20 1000.46 1000.65 1000.76 1001.09 1001.43 1001.83 1002.19 1002.53 1002.57 1002.73 1003.30
1003.13 1002.18 1001.39 1000.52 999.84 999.52 999.37 999.42 999.36 999.52 999.40 999.20 998.98 998.78 998.93 999.31 999.22 999.04 998.93 999.13 998.94 998.76 998.61 998.58 998.59 998.56 998.54 998.49 998.57 998.69 998.75 999.01 999.22 999.33 999.56 999.84 1000.27 1000.77 1001.12 1001.42 1001.32 1001.94 1001.77
1001.91 1001.77 1001.16 1000.19 999.13 998.70 998.67 998.66 998.83 998.73 998.49 998.41 998.16 997.88 997.78 997.93 998.00 997.87 997.68 997.58 997.44 997.38 997.15 997.13 997.18 997.18 997.27 997.31 997.38 997.45 997.58 997.75 997.94 998.02 998.26 998.57 998.99 999.44 999.95 1000.27 1000.52 1000.82 1001.23
1001.81 1001.58 1001.00 1000.25 999.51 998.93 998.70 998.66 998.59 998.27 997.85 997.69 997.51 997.53 997.00 996.85 996.89 996.68 996.46 996.25 996.07 996.02 995.84 996.01 996.06 996.04 995.92 996.06 996.11 996.25 996.47 996.57 996.68 996.81 997.10 997.44 997.80 998.22 998.78 999.21 999.61 999.88 1000.19
1002.15 1001.67 1001.31 1000.90 1000.47 999.97 999.52 998.97 998.30 997.98 997.77 997.36 997.15 996.72 996.48 996.15 995.80 995.51 995.19 994.95 994.60 994.48 994.43 994.52 994.67 994.80 994.75 994.95 995.04 995.16 995.48 995.47 995.61 995.66 995.83 996.21 996.64 997.29 997.82 998.22 998.50 998.78 999.22
1003.94 1003.35 1002.91 1002.48 1001.92 1001.36 1000.63 1000.11 999.52 998.83 998.07 997.41 996.88 996.34 996.11 995.97 995.77 995.43 994.82 994.22 993.85 993.83 993.89 993.89 993.89 994.45 994.59 994.23 994.23 994.17 994.36 994.49 994.58 994.88 995.25 995.37 995.83 996.21 996.71 997.22 997.56 997.93 998.32
1005.41 1004.75 1004.31 1003.75 1003.14 1002.41 1001.89 1001.31 1000.73 1000.15 999.44 998.52 998.06 997.54 997.23 997.08 996.96 996.33 995.71 995.19 995.04 994.71 994.00 993.23 993.29 993.92 993.51 993.13 993.07 993.20 993.57 993.82 993.94 994.34 994.66 994.81 995.11 995.46 995.87 996.27 996.64 996.99 997.32
Wind_Speed
6 5 8 7 7 7 6 7 6 8 10 0 4 7 7 7 8 7 7 8 7 7 8 7 9 7 5 5 4 4 4 4 4 0 1 4 4 3 3 3 4 6 5
4 5 5 7 6 6 6 6 4 4 5 10 11 9 3 5 5 6 6 6 7 9 9 10 10 8 9 8 5 6 5 4 3 2 2 3 4 4 3 4 7 7 7
7 7 4 3 5 5 4 3 1 4 5 7 7 7 5 5 6 6 6 6 7 8 9 11 13 11 10 6 5 5 5 3 4 4 5 3 1 2 1 5 5 10 1
8 7 5 4 3 1 2 2 4 5 6 5 6 3 1 3 2 1 4 4 5 7 7 9 11 11 11 9 6 7 5 4 5 4 2 3 3 3 5 4 3 2 4
6 6 6 3 4 3 1 2 1 2 2 4 4 2 1 2 3 4 1 2 5 7 8 9 10 13 15 12 7 7 5 4 4 4 4 2 3 4 6 4 4 1 4
2 4 6 7 7 5 4 3 2 1 2 3 3 5 5 3 7 6 6 4 6 8 8 8 8 10 12 15 14 12 11 7 6 4 5 5 5 4 2 3 4 3 3
4 4 5 5 6 6 6 6 5 4 4 6 5 6 6 5 9 4 5 1 7 7 10 10 11 9 7 6 10 10 10 9 7 6 5 6 4 6 5 3 3 3 4
8 7 7 6 6 6 6 6 5 3 4 5 6 7 6 6 11 9 9 5 4 3 7 10 9 8 7 10 5 6 8 7 6 6 7 7 6 6 6 6 5 3 1
5 6 6 6 6 5 6 7 6 4 5 5 5 5 6 7 15 14 9 6 4 2 4 11 10 9 12 12 7 6 7 6 10 15 13 11 10 9 6 3 4 3 3
8 8 7 7 7 7 7 7 5 5 5 5 7 6 8 7 15 20 13 5 4 6 11 10 19 17 14 13 8 7 8 8 6 5 4 5 5 7 10 7 5 5 3
7 7 7 7 7 7 6 5 6 7 8 6 7 7 8 7 7 15 23 13 10 11 10 8 9 19 19 20 18 11 10 6 7 5 4 5 4 5 5 6 7 7 4
5 6 7 8 7 7 7 6 6 6 6 7 9 9 8 11 13 17 21 22 18 13 14 11 9 11 18 19 14 16 15 11 5 5 4 5 4 5 6 7 9 8 6
7 7 8 8 9 8 7 8 5 6 6 7 8 8 8 5 7 14 23 27 22 14 13 15 10 10 12 13 16 16 15 8 8 7 9 9 7 7 7 5 7 8 9
8 8 6 7 10 8 7 7 8 8 8 8 8 8 8 9 10 3 4 10 20 16 18 11 7 9 8 7 7 10 8 9 10 10 9 7 4 4 4 6 6 5 5
11 10 10 9 10 10 8 9 9 10 10 8 7 7 9 8 4 7 5 4 6 10 7 6 3 5 7 6 6 7 7 8 9 9 7 5 5 5 6 5 5 4 7
12 11 8 7 7 7 8 8 12 15 14 15 14 12 11 11 8 12 10 12 10 6 5 8 9 8 9 7 8 8 8 11 10 8 8 8 7 7 7 4 4 7 7
12 11 9 9 9 9 8 7 9 8 11 12 15 18 14 18 11 13 12 9 7 10 4 6 7 5 6 6 7 8 9 8 9 9 9 9 8 9 7 7 6 7 6
11 15 10 9 8 8 7 6 7 6 4 6 7 11 13 13 14 15 12 7 2 3 4 6 7 6 5 6 7 7 6 5 7 8 9 8 9 8 6 8 8 10 9
12 8 8 7 8 8 8 8 6 6 6 6 5 6 10 2 3 11 15 8 8 7 8 9 8 7 6 6 6 7 8 7 8 8 8 9 9 8 9 8 8 10 11
12 20 14 7 6 6 6 6 6 6 6 6 5 6 3 4 4 5 6 7 6 8 8 9 9 9 8 7 5 6 7 6 8 8 9 8 9 9 9 9 9 8 8
10 10 17 10 9 6 6 6 7 5 5 6 7 6 11 6 8 6 6 8 9 9 9 9 9 8 9 9 9 9 10 10 10 10 9 9 8 9 9 10 7 8 10
8 8 9 9 8 4 4 4 4 6 7 5 7 7 13 5 8 6 7 8 9 10 10 10 9 8 9 9 9 10 10 11 10 10 10 10 8 8 7 9 11 12 14
3 6 8 9 7 7 4 4 5 7 7 7 6 7 7 7 7 8 9 9 9 10 10 9 10 9 9 7 8 10 11 10 8 8 9 9 8 7 8 8 9 8 10
10 7 8 9 10 11 10 10 8 6 6 6 7 8 7 6 6 6 6 7 7 8 9 11 10 11 10 9 6 6 5 6 6 8 10 9 7 7 7 7 6 7 9
13 13 13 12 10 10 10 11 11 11 8 5 5 6 4 5 7 8 5 5 3 5 5 5 4 5 11 11 12 12 13 15 9 7 5 5 7 9 8 7 7 7 8
13 13 11 10 11 11 10 10 11 11 10 10 10 9 9 8 8 8 9 7 8 9 9 5 6 12 13 11 13 14 12 12 10 10 5 5 5 5 5 7 10 7 7
Wind_Direction
220 203 211 199 212 204 214 218 214 194 212 331 26 247 200 219 223 225 224 221 220 213 215 219 231 232 233 244 234 225 203 170 181 166 299 235 198 138 271 308 326 259 232
317 295 226 189 198 203 223 229 240 250 140 122 246 256 206 244 247 228 225 246 230 224 208 220 231 226 228 226 225 240 219 196 140 166 221 286 233 170 191 245 250 265 234
355 322 8 315 220 215 239 258 204 169 200 191 208 243 215 225 228 236 203 213 236 235 220 213 225 226 227 228 219 219 254 137 140 164 214 231 266 287 243 238 246 240 245
3 3 37 37 53 144 191 262 249 195 218 234 254 264 245 199 199 267 342 323 257 253 224 216 221 221 217 215 214 223 213 179 155 135 268 267 236 256 250 250 257 256 234
15 346 355 346 342 19 289 285 168 303 237 96 54 47 170 189 124 135 114 336 334 313 270 247 232 222 215 207 207 225 212 184 178 176 210 208 217 213 201 198 208 202 268
3 336 332 341 345 346 335 334 179 264 185 199 234 227 220 188 206 265 83 0 339 352 301 304 262 241 228 218 211 213 204 203 201 168 197 184 215 180 197 172 170 188 248
190 257 292 308 319 318 319 335 327 258 227 229 223 226 239 195 228 295 2 181 36 342 307 299 286 270 241 230 223 221 231 223 205 183 192 198 194 193 174 171 208 186 221
209 218 234 241 258 282 296 294 296 308 287 248 222 215 211 210 203 176 199 89 71 338 301 294 290 276 244 252 241 218 215 214 220 208 212 207 202 207 181 169 191 197 244
244 238 236 230 244 252 271 282 278 277 287 285 268 251 216 213 207 185 192 209 152 286 251 238 258 267 261 238 227 238 232 214 204 210 214 215 220 219 195 141 207 163 245
230 226 222 221 220 227 234 244 249 240 245 264 277 267 242 229 210 202 195 195 229 232 235 213 218 229 203 211 204 218 228 228 206 212 236 254 238 231 207 196 179 194 203
259 244 234 231 232 230 231 228 239 254 264 248 256 268 273 250 237 205 196 197 203 210 236 253 212 215 213 214 205 207 220 187 216 235 227 226 211 210 214 215 206 204 186
257 255 252 242 232 233 228 235 241 248 249 253 255 262 260 262 231 205 204 209 204 208 226 227 233 209 204 222 220 227 210 193 202 198 221 232 210 214 218 216 215 215 212
270 257 252 256 246 228 220 236 237 236 243 250 255 257 254 247 253 221 211 217 221 214 235 234 221 199 210 223 229 227 227 223 225 225 229 238 225 231 229 218 218 212 218
263 257 258 256 257 244 234 232 237 244 245 242 249 254 252 245 250 270 230 226 236 224 235 243 219 217 211 207 217 226 219 213 213 223 232 234 224 207 214 227 224 223 207
281 270 261 252 258 254 232 234 235 240 234 237 231 236 247 257 222 193 187 174 210 223 265 254 221 236 235 207 212 217 210 212 217 222 229 226 224 218 223 196 200 182 203
282 277 263 251 245 244 249 254 240 235 239 237 234 234 258 241 202 191 201 203 199 194 191 227 233 221 228 213 209 206 196 204 208 213 218 222 223 218 224 215 185 200 210
273 273 269 262 261 257 253 242 255 259 240 241 254 251 225 247 229 199 193 205 198 141 185 209 229 220 215 209 216 206 203 196 191 199 210 215 216 225 213 217 199 194 196
278 255 256 260 257 254 246 246 246 247 242 261 259 236 234 225 236 188 184 154 165 253 248 210 221 224 215 216 213 216 206 192 197 208 208 209 210 216 225 230 211 203 203
315 282 255 258 252 239 249 247 247 242 250 248 251 249 239 35 103 169 180 211 207 206 215 235 226 214 213 220 214 199 206 199 210 209 210 207 214 208 222 235 237 217 210
313 309 300 258 243 244 239 237 237 243 241 245 244 248 203 156 200 190 201 213 229 229 222 225 219 212 212 220 218 206 210 203 208 209 206 207 212 212 223 228 234 231 222
298 299 304 296 259 232 231 230 238 230 226 232 239 238 235 208 243 213 198 201 213 223 225 226 225 214 211 213 219 225 225 225 223 217 212 212 206 213 203 215 218 212 254
271 291 293 299 296 265 232 221 219 255 252 239 256 249 247 217 235 219 207 210 214 214 220 226 223 215 217 217 217 219 221 221 210 216 213 206 202 208 202 204 210 211 211
337 313 305 310 325 327 321 261 233 249 243 251 267 271 256 243 229 225 225 224 217 225 227 220 224 224 223 220 217 221 223 222 219 214 206 201 202 203 214 211 206 202 207
356 344 355 4 5 357 348 326 303 245 252 263 276 271 253 249 252 245 223 222 231 224 223 222 224 226 223 226 219 198 214 221 217 208 200 204 196 196 207 203 197 193 188
14 19 21 12 3 359 354 359 356 357 343 317 303 299 315 314 344 319 291 273 222 191 216 210 184 266 260 238 236 226 214 216 208 202 207 186 198 196 202 205 200 202 198
14 21 22 16 9 6 1 1 356 357 354 1 1 10 18 6 356 352 356 4 351 326 296 255 206 203 217 227 224 222 221 223 222 224 229 208 200 201 186 190 207 203 202